Welcome to the New NWS' Forecast!
Most changes are behind the scenes, but click here for differences you might notice.
Latest weather observations around

Mountain Home, Baxter County Regional Airport (KBPK)

Using English Units (Switch to International System of Units)
Date/ Time (CST) Wind (mph) Vis. (mi) Weather Sky Cond. Temp (°F) Rel. Humidity Wind Chill (°F) Heat Index (°F) Pressure Precip. (in)
Air Dwpt 6 hour Altimeter (inHg) Sea level (inHg) 1 hr 3 hr 6 hr
Max Min
Nov 18 01:53 SW 14 10 Clear CLR 68 63     84%     29.53 29.5      
Nov 18 00:53 SW 13 10 Clear CLR 68 63     84%     29.55 29.53      
Nov 17 22:53 SW 11 10 Clear CLR 68 62     81%     29.61 29.59      
Nov 17 21:53 SW 10 10 Clear CLR 68 62     81%     29.64 29.62      
Nov 17 20:53 SW 10 10 Clear CLR 67 62     84%     29.65 29.63      
Nov 17 19:53 SW 10 10 Clear CLR 67 62     84%     29.65 29.64      
Nov 17 18:53   10 Mostly Clear FEW021 67 62     84%     29.65 29.64      
Nov 17 17:53 SW 16 10 Mostly Clear FEW020 66 62     87%     29.66 29.65      
Nov 17 16:53   10 Mostly Cloudy SCT021 BKN027 65 61     87%     29.69 29.68      
Nov 17 15:53 SSW 10 10 Cloudy OVC016 64 61     90%     29.71 29.7      
Nov 17 15:51 SSW 13 10 Cloudy OVC016 64 61     88%     29.71        
Nov 17 14:53 SSW 13 10 Cloudy OVC012 63 60     90%     29.75 29.74      
Nov 17 13:53 SSW 11 10 Cloudy OVC012 62 58     86%     29.78 29.77      
Nov 17 12:53 SSW 15 10 Cloudy OVC013 61 58     90%     29.81 29.8      
Nov 17 12:34 S 11 10 Cloudy OVC014 61 57     87%     29.82        
Nov 17 11:53 SSW 9 10 Cloudy OVC015 61 56     83%     29.86 29.85      
Nov 17 10:53 SSW 10 10 Cloudy OVC017 59 54     83%     29.91 29.9      
Nov 17 09:53 S 8 10 Cloudy OVC015 56 50     80%     29.94 29.94      
Nov 17 08:53 S 8 10 Cloudy BKN020 OVC027 52 47     83%     29.97 29.96      
Nov 17 07:53 S 7 10 Cloudy BKN019 OVC025 49 44     83% 46   29.99 29.99      
Nov 17 06:53 SSE 9 10 Cloudy OVC019 48 43     83% 44   29.99 29.99      
Nov 17 05:53 SSE 8 10 Cloudy OVC018 48 43     83% 44   30.02 30.01      
Nov 17 04:53 SSE 8 10 Cloudy OVC018 47 42     83% 43   30.04 30.03      
Nov 17 03:53 SE 8 10 Cloudy BKN021 OVC085 47 42     83% 43   30.07 30.06      
Nov 17 03:51 SSE 6 10 Cloudy BKN021 OVC085 46 43     87% 43   30.07        
Nov 17 03:28 SE 9 10 Cloudy SCT021 OVC085 47 42     83% 43   30.05        
Nov 17 02:53 SE 8 10 Cloudy BKN020 OVC080 47 42     83% 43   30.05 30.05      
Nov 17 01:53 ESE 7 10 Cloudy OVC021 47 42     83% 44   30.08 30.07      
Nov 17 00:53 SSE 8 10 Cloudy OVC021 48 41     77% 44   30.09 30.09      
Nov 17 00:10 SE 7 10 Cloudy BKN020 BKN025 OVC080 47 40     76% 44   30.11        
Nov 16 23:53 SSE 9 10 Cloudy OVC075 47 40     76% 43   30.11 30.11      
Nov 16 22:53 S 8 10 Mostly Cloudy FEW055 BKN075 47 40     76% 43   30.11 30.11      
Nov 16 21:53 SSE 7 10 Clear CLR 47 39     74% 44   30.11 30.11      
Nov 16 20:53 SSE 8 10 Clear CLR 49 39     69% 45   30.12 30.12      
Nov 16 19:53 SSE 6 10 Clear CLR 50 38     63% 48   30.13 30.13      
Nov 16 18:53 SE 7 10 Clear CLR 50 38     63% 47   30.12 30.13      
Nov 16 17:53 ESE 5 10 Clear CLR 51 37     59%     30.12 30.12      
Nov 16 16:53 SE 5 10 Clear CLR 54 38     55%     30.1 30.1      
Nov 16 15:53 SE 3 10 Clear CLR 59 36     42%     30.11 30.11      
Nov 16 14:53 Calm 10 Clear CLR 59 34     39%     30.12 30.12      
Nov 16 13:53 S 5 10 Clear CLR 59 35     41%     30.13 30.13      
Nov 16 12:53 SSE 5 10 Clear CLR 59 35     41%     30.16 30.15      
Nov 16 11:53   10 Clear CLR 55 34     45%     30.19 30.19      
Nov 16 09:53 5 10 Clear CLR 49 36     61% 47   30.24 30.24      
Nov 16 08:53 3 10 Clear CLR 46 37     71% 45   30.23 30.23      
Nov 16 07:53 Calm 10 Clear CLR 39 39     100%     30.22 30.23      
Nov 16 06:53 Calm 10 Clear CLR 35 34     96%     30.21 30.22      
Nov 16 05:53 Calm 10 Clear CLR 37 35     92%     30.19 30.19      
Nov 16 04:53 Calm 10 Clear CLR 37 37     100%     30.19 30.19      
Nov 16 03:53 Calm 10 Clear CLR 38 38     100%     30.17 30.17      
Nov 16 02:53 Calm 10 Clear CLR 37 37     100%     30.18 30.18      
Nov 16 01:53 Calm 10 Clear CLR 41 39     93%     30.17 30.16      
Nov 16 00:53 Calm 10 Clear CLR 42 40     92%     30.17 30.16      
Nov 15 23:53 Calm 10 Clear CLR 42 39     89%     30.17 30.17      
Nov 15 22:53 Calm 10 Clear CLR 44 39     82%     30.16 30.16      
Nov 15 21:53 NNW 3 10 Clear CLR 47 40     76% 46   30.15 30.14      
Nov 15 20:53 NNW 3 10 Clear CLR 49 39     69% 48   30.13 30.13      
Nov 15 19:53 N 7 10 Clear CLR 53 41     63%     30.12 30.11      
Nov 15 18:53 N 5 10 Clear CLR 53 48     83%     30.1 30.09      
Nov 15 17:53 Calm 10 Clear CLR 53 53     100%     30.08 30.07      
Nov 15 16:53 Calm 10 Clear CLR 58 54     87%     30.06 30.05      
Nov 15 15:53 NW 3 10 Mostly Clear FEW026 62 54     75%     30.05 30.03      
Nov 15 15:10 6 10 Partly Cloudy SCT024 62 55     78%     30.04        
Nov 15 14:53 N 3 10 Cloudy OVC026 60 56     86%     30.03 30.02      
Nov 15 13:53 N 3 10 Cloudy SCT013 OVC020 59 56     90%     30.02 30.01      
Nov 15 13:00 3 9 Cloudy OVC010 59 58     96%     30.01        
Nov 15 12:53 3 9 Cloudy BKN008 OVC015 60 58     93%     30.01 30      
Nov 15 12:11 3 6 Fog/Mist BKN005 OVC009 57 57     100%     30.02        
Nov 15 11:53 NNW 5 3 Fog/Mist OVC004 57 57     100%     30.03 30.02     0
Nov 15 11:39 NNW 3 4 Fog/Mist OVC004 57 57     100%     30.03        
Nov 15 11:08 3 4 Fog/Mist BKN003 OVC017 56 56     100%     30.04        
Nov 15 10:53 Calm 4 Fog/Mist FEW003 SCT011 OVC018 56 56     100%     30.03 30.03 0    
Nov 15 10:33 W 3 4 Light Rain and Fog/Mist FEW003 BKN017 OVC023 56 56     100%     30.03   0    
Nov 15 09:53 3 8 Cloudy BKN024 BKN033 OVC042 55 55     100%     30.03 30.02 0    
Nov 15 04:53 SSW 5 10 Cloudy BKN060 OVC100 54 48     80%     29.95 29.95      
Nov 15 03:53 S 7 10 Cloudy FEW060 OVC090 54 48     80%     29.97 29.96      
Nov 15 02:53 SSW 6 10 Cloudy BKN065 BKN075 OVC090 53 47     80%     30 29.99      
Jun 08 22:53 Calm 10 Clear CLR 64 47     54%     29.96 29.93      
Jun 08 19:53 Calm 10 Clear CLR 68 55     63%     29.95 29.93      
Notice The following observation data may not be complete
Jun 07 19:53 Calm 10 Clear CLR   51      %     30 29.98      
Jun 07 13:53 3 10 Clear CLR 78 46     32%   77 30.03 30.01      
Jun 07 10:53 5 10 Clear CLR 73 55     53%   73 30.06 30.03      
Jun 06 11:53 6 10 Clear CLR 80 65     60%   82 29.9 29.87      
Jun 06 09:53 Calm 10 Clear CLR 75 65     71%   76 29.9 29.87